Location: Unspecified
(0.0000°N, 0.0000°E)
Time: 22:24:03
(UTC+00:00)

HST - Visible Passes

Search period start: 23 September 2014 00:00
Search period end: 03 October 2014 00:00
Orbit: 547 x 551 km, 28.5° (Epoch: 22 September)

Date Brightness Start Highest point End Pass type
(mag) Time Alt. Az. Time Alt. Az. Time Alt. Az.
23 Sep 0.9 18:38:06 10° NW 18:42:13 58° NNE 18:44:58 20° ESE visible
23 Sep 4.1 20:20:22 10° W 20:20:34 11° WSW 20:20:34 11° WSW visible
24 Sep 3.5 04:55:17 10° S 04:57:12 13° SSE 04:59:08 10° SE visible
24 Sep 0.8 18:31:00 10° WNW 18:35:11 90° NNE 18:38:54 13° ESE visible
24 Sep 3.9 20:14:09 10° WSW 20:14:30 11° WSW 20:14:30 11° WSW visible
25 Sep 3.2 04:47:19 10° SSW 04:50:14 18° SSE 04:53:10 10° ESE visible
25 Sep 1.3 18:24:01 10° WNW 18:28:09 59° SSW 18:32:16 10° SE visible
26 Sep 2.6 04:40:05 12° SSW 04:43:14 26° SSE 04:46:46 10° E visible
26 Sep 2.1 18:17:12 10° W 18:21:06 38° SSW 18:25:01 10° SE visible
27 Sep 2.0 04:34:00 21° SSW 04:36:13 38° SSE 04:40:07 10° E visible
27 Sep 2.7 18:10:33 10° W 18:14:05 26° SSW 18:17:37 10° SSE visible
28 Sep 1.2 04:27:55 40° SSW 04:29:10 59° SSE 04:33:17 10° ENE visible
29 Sep 0.6 04:21:52 79° WSW 04:22:07 90° NNW 04:26:18 10° ENE visible
30 Sep 1.3 04:15:46 49° NNE 04:15:46 49° NNE 04:19:10 10° NE visible
01 Oct 2.4 04:09:38 26° NNE 04:09:38 26° NNE 04:11:53 10° NE visible
02 Oct 3.1 04:03:27 15° NNE 04:03:27 15° NNE 04:04:27 10° NNE visible
